Weather History for KNQX - May, 2013

Change the Weather History Date:

Sunday, May 5, 2013

  Actual Average (KEYW) Record (KEYW)
Temperature  
Mean Temperature 74 °F 79 °F  
Max Temperature 79 °F 84 °F 91 °F (1873)
Min Temperature 71 °F 74 °F 64 °F (1992)
Degree Days  
Heating Degree Days 0 0  
Month to date heating degree days 0  
Since 1 July heating degree days 73  
Cooling Degree Days 10 14  
Month to date cooling degree days 69  
Year to date cooling degree days 1023  
Growing Degree Days 24 (Base 50)    
Moisture  
Dew Point 58 °F    
Average Humidity 58    
Maximum Humidity 66    
Minimum Humidity 54    
Precipitation  
Precipitation 0.00 in 0.06 in 2.10 in (1968)
Month to date precipitation 0.26  
Year to date precipitation 7.89  
Snow  
Snow 0.00 in - - ()
Month to date snowfall  
Since 1 July snowfall  
Snow Depth -    
Sea Level Pressure  
Sea Level Pressure 29.91 in    
Wind  
Wind Speed 13 mph (NW)    
Max Wind Speed 17 mph    
Max Gust Speed 25 mph    
Visibility 10 miles    
Events      
T = Trace of Precipitation, MM = Missing Value Source: NWS Daily Summary

Daily Weather History Graph

Daily Weather History Graph

Search for Another Location

Airport or City:

Trip Planner

Search our weather history database for the weather conditions in past years. The results will help you decide how hot, cold, wet, or windy it might be!

Date:

Astronomy

May. 05, 2013 Rise Set
Actual Time 6:48 AM EDT 7:58 PM EDT
Civil Twilight 6:24 AM EDT 8:22 PM EDT
Nautical Twilight 5:55 AM EDT 8:51 PM EDT
Astronomical Twilight 5:26 AM EDT 9:20 PM EDT
Moon 3:51 AM EDT (5/5) 4:19 PM EDT (5/5)
Length of Visible Light 13h 58m
Length of Day
13h 09m
Waning Crescent, 18% of the Moon is Illuminated
May 5
Waning Crescent
May 9
New
May 18
First Quarter
May 25
Full
May 31
Last Quarter

Hourly Weather History & Observations

Time (EDT) Temp. Dew Point Humidity Pressure Visibility Wind Dir Wind Speed Gust Speed Precip Events Conditions
12:53 AM 73.0 °F 59.0 °F 61% 29.86 in 10.0 mi WNW 10.4 mph - N/A   Scattered Clouds
1:53 AM 73.0 °F 61.0 °F 66% 29.85 in 10.0 mi WNW 8.1 mph - N/A   Mostly Cloudy
2:53 AM 73.0 °F 59.0 °F 61% 29.84 in 10.0 mi WNW 11.5 mph - N/A   Scattered Clouds
3:53 AM 73.0 °F 57.9 °F 59% 29.83 in 10.0 mi NW 11.5 mph - N/A   Partly Cloudy
4:53 AM 73.0 °F 57.9 °F 59% 29.83 in 10.0 mi WNW 12.7 mph 20.7 mph N/A   Overcast
5:54 AM 71.6 °F 57.2 °F 60% 29.85 in 10.0 mi WNW 13.8 mph 20.7 mph N/A   Scattered Clouds
6:53 AM 72.0 °F 57.9 °F 61% 29.87 in 10.0 mi WNW 13.8 mph 20.7 mph N/A   Scattered Clouds
7:53 AM 72.0 °F 57.0 °F 59% 29.90 in 10.0 mi WNW 10.4 mph - N/A   Scattered Clouds
8:53 AM 73.0 °F 59.0 °F 61% 29.91 in 10.0 mi NNW 17.3 mph 21.9 mph N/A   Scattered Clouds
9:53 AM 75.0 °F 57.9 °F 55% 29.92 in 10.0 mi NNW 16.1 mph - N/A   Scattered Clouds
10:53 AM 75.9 °F 59.0 °F 56% 29.94 in 10.0 mi NNW 16.1 mph 21.9 mph N/A   Mostly Cloudy
11:53 AM 77.0 °F 60.1 °F 56% 29.94 in 10.0 mi NNW 13.8 mph - N/A   Scattered Clouds
12:53 PM 78.1 °F 61.0 °F 56% 29.94 in 10.0 mi NNW 13.8 mph - N/A   Scattered Clouds
1:53 PM 78.1 °F 60.1 °F 54% 29.94 in 10.0 mi NW 16.1 mph 21.9 mph N/A   Scattered Clouds
2:53 PM 77.0 °F 60.1 °F 56% 29.94 in 10.0 mi NNW 12.7 mph - N/A   Mostly Cloudy
3:53 PM 77.0 °F 60.1 °F 56% 29.92 in 10.0 mi NW 16.1 mph - N/A   Scattered Clouds
4:53 PM 75.9 °F 57.9 °F 54% 29.92 in 10.0 mi NNW 17.3 mph - N/A   Scattered Clouds
5:53 PM 73.9 °F 57.9 °F 57% 29.92 in 10.0 mi NW 17.3 mph 25.3 mph N/A   Partly Cloudy
6:53 PM 73.0 °F 55.9 °F 55% 29.93 in 10.0 mi NW 16.1 mph - N/A   Scattered Clouds
7:53 PM 71.1 °F 55.9 °F 59% 29.94 in 6.0 mi NW 17.3 mph 21.9 mph N/A   Haze
8:53 PM 72.0 °F 55.0 °F 55% 29.96 in 10.0 mi NNW 15.0 mph - N/A   Clear
9:53 PM 72.0 °F 55.9 °F 57% 29.96 in 10.0 mi NNW 16.1 mph - N/A   Clear
10:53 PM 71.1 °F 57.9 °F 63% 29.98 in 10.0 mi NNW 15.0 mph - N/A   Clear
11:53 PM 71.1 °F 57.0 °F 61% 29.98 in 10.0 mi NNW 13.8 mph - N/A   Clear